Weather History for South St. Paul, MN

Change the Weather History Date:

Wednesday, October 2, 2013

  Actual Average (KMSP) Record (KMSP)
Temperature  
Mean Temperature 62 °F 55 °F  
Max Temperature 77 °F 65 °F 89 °F (1953)
Min Temperature 46 °F 45 °F 22 °F (1974)
Degree Days  
Heating Degree Days 4 11  
Month to date heating degree days 21  
Since 1 July heating degree days 194  
Cooling Degree Days 0 1  
Month to date cooling degree days 2  
Year to date cooling degree days 749  
Growing Degree Days 12 (Base 50)    
Moisture  
Dew Point 43 °F    
Average Humidity 56    
Maximum Humidity 94    
Minimum Humidity 21    
Precipitation  
Precipitation 0.30 in 0.10 in 0.90 in (2013)
Month to date precipitation 0.20  
Year to date precipitation 25.45  
Snow  
Snow 0.00 in 0.00 in 0.00 in ()
Month to date snowfall 0.0  
Since 1 July snowfall T  
Since 1 September snowfall T  
Snow Depth -    
Sea Level Pressure  
Sea Level Pressure 29.98 in    
Wind  
Wind Speed 3 mph (SE)    
Max Wind Speed 15 mph    
Max Gust Speed 26 mph    
Visibility 10 miles    
Events Rain , Thunderstorm    
T = Trace of Precipitation, MM = Missing Value Source: NWS Daily Summary

Daily Weather History Graph

Daily Weather History Graph

Search for Another Location

Airport:

Trip Planner

Search our weather history database for the weather conditions in past years. The results will help you decide how hot, cold, wet, or windy it might be!

Date:

Astronomy

Oct. 02, 2013 Rise Set
Actual Time 7:11 AM CDT 6:50 PM CDT
Civil Twilight 6:42 AM CDT 7:19 PM CDT
Nautical Twilight 6:08 AM CDT 7:53 PM CDT
Astronomical Twilight 5:34 AM CDT 8:27 PM CDT
Moon 4:40 AM CDT (10/2) 5:30 PM CDT (10/2)
Length of Visible Light 12h 36m
Length of Day
11h 38m
Waning Crescent, 6% of the Moon is Illuminated
Oct 2
Waning Crescent
Oct 4
New
Oct 11
First Quarter
Oct 18
Full
Oct 26
Last Quarter

Hourly Weather History & Observations

Time (CDT) Temp. Dew Point Humidity Pressure Visibility Wind Dir Wind Speed Gust Speed Precip Events Conditions
12:12 AM 55.2 °F 39.9 °F 56% 30.00 in 10.0 mi Calm Calm - N/A   Clear
12:32 AM 52.9 °F 42.4 °F 68% 30.00 in 10.0 mi Calm Calm - N/A   Clear
12:52 AM 53.8 °F 41.4 °F 63% 30.01 in 10.0 mi Calm Calm - N/A   Clear
1:12 AM 51.8 °F 41.5 °F 68% 30.01 in 10.0 mi Calm Calm - N/A   Clear
1:32 AM 52.7 °F 41.0 °F 64% 30.02 in 10.0 mi Calm Calm - N/A   Clear
1:52 AM 51.3 °F 43.0 °F 73% 30.02 in 10.0 mi Calm Calm - N/A   Clear
2:12 AM 51.1 °F 42.6 °F 73% 30.02 in 10.0 mi Calm Calm - N/A   Clear
2:32 AM 50.4 °F 42.4 °F 74% 30.02 in 10.0 mi Calm Calm - N/A   Clear
2:52 AM 50.4 °F 43.2 °F 76% 30.02 in 10.0 mi Calm Calm - N/A   Clear
3:12 AM 49.3 °F 41.4 °F 74% 30.03 in 10.0 mi Calm Calm - N/A   Clear
3:32 AM 50.4 °F 41.0 °F 70% 30.03 in 10.0 mi Calm Calm - N/A   Clear
3:52 AM 50.0 °F 41.0 °F 71% 30.03 in 10.0 mi Calm Calm - N/A   Clear
4:12 AM 49.1 °F 41.7 °F 76% 30.03 in 10.0 mi Calm Calm - N/A   Clear
4:32 AM 48.0 °F 41.2 °F 77% 30.03 in 10.0 mi Calm Calm - N/A   Clear
4:52 AM 47.8 °F 41.2 °F 78% 30.03 in 10.0 mi Calm Calm - N/A   Clear
5:12 AM 48.0 °F 41.7 °F 79% 30.03 in 10.0 mi Calm Calm - N/A   Clear
5:32 AM 46.9 °F 40.3 °F 78% 30.04 in 10.0 mi Calm Calm - N/A   Clear
5:52 AM 47.8 °F 41.5 °F 79% 30.04 in 10.0 mi Calm Calm - N/A   Clear
6:12 AM 47.3 °F 42.1 °F 82% 30.05 in 10.0 mi Calm Calm - N/A   Clear
6:32 AM 47.7 °F 43.5 °F 86% 30.05 in 10.0 mi Calm Calm - N/A   Clear
6:52 AM 47.3 °F 43.3 °F 86% 30.04 in 10.0 mi Calm Calm - N/A   Clear
7:12 AM 46.9 °F 42.8 °F 86% 30.04 in 10.0 mi Calm Calm - N/A   Clear
7:32 AM 46.8 °F 43.0 °F 87% 30.05 in 10.0 mi Calm Calm - N/A   Clear
7:52 AM 48.2 °F 44.1 °F 86% 30.06 in 10.0 mi South 3.5 mph - N/A   Clear
8:12 AM 50.5 °F 45.9 °F 84% 30.06 in 10.0 mi Calm Calm - N/A   Clear
8:32 AM 52.0 °F 46.4 °F 81% 30.06 in 10.0 mi SSE 3.5 mph - N/A   Clear
8:52 AM 53.8 °F 46.4 °F 76% 30.06 in 10.0 mi Calm Calm - N/A   Clear
9:12 AM 55.8 °F 45.1 °F 67% 30.06 in 10.0 mi Calm Calm - N/A   Clear
9:32 AM 58.5 °F 45.9 °F 63% 30.06 in 10.0 mi SSE 6.9 mph - N/A   Clear
9:52 AM 61.0 °F 45.5 °F 57% 30.05 in 10.0 mi SSE 5.8 mph - N/A   Clear
10:12 AM 63.7 °F 44.4 °F 50% 30.06 in 10.0 mi SSE 4.6 mph - N/A   Clear
10:32 AM 65.3 °F 45.1 °F 48% 30.05 in 10.0 mi SSE 4.6 mph - N/A   Clear
10:52 AM 66.2 °F 44.8 °F 46% 30.05 in 10.0 mi SE 3.5 mph - N/A   Clear
11:12 AM 68.0 °F 45.0 °F 43% 30.03 in 10.0 mi SE 5.8 mph - N/A   Clear
11:32 AM 70.2 °F 42.4 °F 37% 30.03 in 10.0 mi SE 4.6 mph - N/A   Clear
11:52 AM 72.7 °F 37.4 °F 28% 30.02 in 10.0 mi SE 9.2 mph - N/A   Clear
12:12 PM 73.4 °F 37.2 °F 27% 30.02 in 10.0 mi SE 10.4 mph - N/A   Clear
12:32 PM 73.6 °F 35.8 °F 25% 30.02 in 10.0 mi SE 9.2 mph 16.1 mph N/A   Clear
12:52 PM 74.1 °F 35.6 °F 25% 30.02 in 10.0 mi SE 6.9 mph - N/A   Mostly Cloudy
1:12 PM 74.3 °F 32.4 °F 21% 30.01 in 10.0 mi SE 9.2 mph - N/A   Overcast
1:32 PM 73.8 °F 32.0 °F 22% 30.00 in 10.0 mi SE 10.4 mph 16.1 mph N/A   Overcast
1:52 PM 74.5 °F 34.0 °F 23% 29.99 in 10.0 mi ESE 8.1 mph - N/A   Overcast
2:12 PM 75.6 °F 37.0 °F 25% 29.97 in 10.0 mi SE 8.1 mph - N/A   Overcast
2:32 PM 76.5 °F 38.1 °F 25% 29.95 in 10.0 mi SE 10.4 mph - N/A   Overcast
2:52 PM 77.0 °F 37.2 °F 24% 29.94 in 10.0 mi ESE 9.2 mph - N/A   Scattered Clouds
3:12 PM 75.7 °F 36.5 °F 24% 29.93 in 10.0 mi SE 6.9 mph - N/A   Scattered Clouds
3:32 PM 76.8 °F 38.8 °F 25% 29.92 in 10.0 mi SE 8.1 mph - N/A   Scattered Clouds
3:52 PM 77.0 °F 37.4 °F 24% 29.91 in 10.0 mi SE 8.1 mph - N/A   Clear
4:12 PM 76.1 °F 38.1 °F 25% 29.90 in 10.0 mi SE 9.2 mph - N/A   Mostly Cloudy
4:32 PM 76.1 °F 38.5 °F 26% 29.90 in 10.0 mi SSE 6.9 mph - N/A   Mostly Cloudy
4:52 PM 76.5 °F 36.0 °F 23% 29.89 in 10.0 mi SSE 9.2 mph - N/A   Mostly Cloudy
5:12 PM 76.5 °F 36.5 °F 24% 29.88 in 10.0 mi SSE 9.2 mph 16.1 mph N/A   Mostly Cloudy
5:32 PM 76.1 °F 37.9 °F 25% 29.88 in 10.0 mi SSE 8.1 mph - N/A   Scattered Clouds
5:52 PM 74.8 °F 39.2 °F 28% 29.87 in 10.0 mi SSE 8.1 mph - N/A   Clear
6:12 PM 73.8 °F 39.7 °F 29% 29.87 in 10.0 mi SSE 6.9 mph - N/A   Clear
6:32 PM 73.0 °F 40.5 °F 31% 29.86 in 10.0 mi SSE 8.1 mph - N/A   Scattered Clouds
6:52 PM 72.5 °F 41.2 °F 32% 29.85 in 10.0 mi SE 6.9 mph - N/A   Scattered Clouds
7:12 PM 72.5 °F 41.5 °F 33% 29.85 in 10.0 mi ESE 3.5 mph - N/A Thunderstorm Mostly Cloudy
7:32 PM 70.5 °F 45.0 °F 40% 29.87 in 10.0 mi NNE 12.7 mph - N/A Thunderstorm Thunderstorm
7:52 PM 70.3 °F 44.6 °F 40% 29.87 in 10.0 mi ENE 8.1 mph - N/A Thunderstorm Thunderstorm
8:12 PM 71.1 °F 45.0 °F 39% 29.87 in 10.0 mi ENE 4.6 mph - N/A Rain , Thunderstorm Light Thunderstorms and Rain
8:32 PM 68.7 °F 48.2 °F 48% 29.87 in 10.0 mi NNE 9.2 mph - N/A Rain , Thunderstorm Light Thunderstorms and Rain
8:52 PM 64.6 °F 52.0 °F 64% 29.89 in 7.0 mi NNE 8.1 mph - 0.03 in Rain , Thunderstorm Thunderstorms and Rain
9:12 PM 61.9 °F 54.1 °F 76% 29.90 in 10.0 mi North 5.8 mph - 0.01 in Rain Light Rain
9:32 PM 62.1 °F 53.4 °F 73% 29.88 in 10.0 mi ENE 8.1 mph - 0.03 in Rain Rain
9:52 PM 61.7 °F 54.0 °F 76% 29.91 in 10.0 mi NNW 9.2 mph - 0.03 in   Mostly Cloudy
10:12 PM 60.1 °F 54.5 °F 82% 29.95 in 7.0 mi North 15.0 mph 26.5 mph 0.04 in Rain , Thunderstorm Rain
10:32 PM 58.1 °F 55.8 °F 92% 29.94 in 7.0 mi NNE 8.1 mph 16.1 mph 0.08 in Rain Rain
10:52 PM 58.1 °F 56.3 °F 94% 29.89 in 7.0 mi East 12.7 mph 18.4 mph 0.14 in Rain Light Rain
11:12 PM 58.1 °F 56.3 °F 94% 29.90 in 10.0 mi South 4.6 mph - 0.01 in Rain , Thunderstorm Light Thunderstorms and Rain
11:32 PM 58.3 °F 56.5 °F 94% 29.89 in 7.0 mi SSE 5.8 mph - 0.05 in Rain , Thunderstorm Light Thunderstorms and Rain
11:52 PM 58.5 °F 56.7 °F 94% 29.89 in 5.0 mi South 4.6 mph - 0.10 in Rain Rain